Location: Great Snoring
(52.8667°N, 0.8833°E)
Time: 06:56:54
(UTC+00:00)

Cosmos 1805 - Pass Details

Date: 19 May 2025
Orbit: 448 x 452 km, 82.5° (Epoch: 18 June)

Event Time Altitude Azimuth Distance (km) Brightness Sun altitude
Rises 22:17:30 0° 344° (NNW) 2,470 8.5 -14.3°
Reaches altitude 10° 22:19:37 10° 339° (NNW) 1,592 7.1 -14.4°
Maximum altitude 22:22:58 48° 264° (W) 599 3.6 -14.6°
Enters shadow 22:24:51 22° 200° (SSW) 1,021 4.3 -14.7°
